Погода в Тотьме

Погода в Тотьме : погода сейчас, прогноз погоды и архив. Всё, что Вы хотите узнать о погоде в Тотьме!

Хотите узнать прогноз погоды в Тотьме? Тогда Вам сюда: Погода в Тотьме

Поиск расширенной информации на нашем сайте:

Другие новости

Новости СМИ2

Главная страница сайта

Новости сайта

03.07.2017

Напоминаем, что на нашем специализированном сайте Метеоцентр.Азия вы можете получить высокодетализированные автоматические прогнозы погоды по пунктам России, СНГ и мира в авиационном формате (включающие направление и скорость ветра, видимость, явления погоды, количество и форму облачности, нижнюю и верхнюю границу облачности).


Погода в Тотьме - сегодня

Время (UTC), дата Ветер
(°,м/с) 
Видим.   Явления Облачность Т
(°С)
Тd
(°С)
f(%) Тe
(°С)
Pmin
(гПа)
dP
(гПа)
Po
(мм)
O2
(г/м3)
Тmin Tmax R s Состояние
почвы
09 19.09.17 230 (ЮЗ) 10 км  в посл. час ливневой дождь  10/8 480 м кучево-дожд., средняя 
[Cb cap|Ac trans]
+15 +9.4 69 +16  1000.5  739  280           
12 19.09.17 210 (ЮЗ) 10 км  {ливн. осадки}  10/8 600 м кучево-дожд., средняя, верхняя 
[Cb cap|Ac trans|Cs]
+12.9 +10.8 87 +16  1002.3  1.6  740  283           
15 19.09.17 200 (Ю) 10 км  {ливн. осадки}  10/8 300 м кучево-дожд., средняя 
[Cb cap|Ac trans]
+11.6 +10.7 94 +14  1003.5  1.2  741  284    +16.9  0.8     
18 19.09.17 250 (З) 4000 м  слаб. дождь{ливн. осадки}  10/8 270 м средняя 
[Frnb|As op]
+11.8 +10.9 94 +15  1005  1.4  742  284           
21 19.09.17 250 (З) 4000 м  слаб. дождь  10/8 240 м средняя 
[Frnb|As op]
+11.8 +10.9 94 +15  1007  743  285           
00 20.09.17 250 (З) 4000 м  слаб. дождь  10/8 240 м средняя 
[Frnb|As op]
+11.8 +10.9 94 +15  1009.2  2.1  745  286           
03 20.09.17 250 (З) 4000 м  слаб. морось{дождь}  10/10 240 м 
[St]
+9.7 +8.8 94 +9  1012.2  2.9  747  289  +9.7      мокрая 
06 20.09.17 270 (З) 10 км  {дождь, морось}  10/8 360 м средняя 
[Sc|Ac As]
+10.2 +8.8 91 +9  1014.9  2.7  749  289  +9.6         
09 20.09.17 310 (СЗ) 4000 м  слаб. дождь  10/8 300 м средняя 
[Frnb|Ac As]
+10.8 +9.3 90 +10  1018.2  3.3  752  290           
12 20.09.17 320 (СЗ) 4000 м  слаб. ливневой дождь  10/8 500 м кучево-дожд., средняя 
[Cb cap|Ac trans]
+10.8 +9.2 90 +11  1020.8  2.5  753  290           
15 20.09.17 340 (С) 4000 м  слаб. дождь  10/8 480 м средняя 
[Sc|Ac As]
+9.9 +8.7 92 +10  1022.8  755  292    +11.7  0.5     
18 20.09.17 350 (С) 10 км  в посл. час дождь  10/8 300 м средняя 
[Frnb|As op]
+8.5 +7.3 92 +9  1024.9  1.9  756  294           
21 20.09.17 020 (С) 10 км    ясно 
+7.3 +6.4 94 +8  1026.5  1.5  757  296           
00 21.09.17 360 (С) 10 км    9/9 2000 м средняя 
[Ac trans]
+6.8 +5.9 94 +7  1028.3  1.8  759  297           
03 21.09.17 040 (СВ) 10 км  {ливн. осадки}  9/6 500 м кучево-дожд., средняя 
[Cb cap|Ac trans]
+6.6 +5.8 95 +8  1029.7  1.3  760  298  +6.5    0.3    мокрая 
06 21.09.17 070 (В) 10 км  в посл. час морось{ливн. осадки}  10/8 210 м средняя 
[St|Ac trans]
+6.6 +5.5 93 +6  1032  2.3  761  299           
09 21.09.17 070 (В) 10 км    9/8 400 м средняя 
[Sc|Ac trans]
+8.5 +5.2 80 +8  1033.3  1.4  763  297           
12 21.09.17 080 (В) 10 км    9/8 720 м средняя 
[Sc|Ac trans]
+8 +3.1 71 +7  1035  1.6  764  299           
15 21.09.17 030 (СВ) 10 км    3/3 1000 м средняя 
[Sc|Ac trans]
+7.1 +3.7 79 +8  1035.9  0.8  764  300    +9.2  0.0     
18 21.09.17 040 (СВ) 10 км    ясно 
+4.7 +3.4 91 +4  1037.2  1.2  765  303           
21 21.09.17 тихо ()   10 км    ясно 
+2.4 +1.4 93 +2  1038.9  1.6  766  306           
00 22.09.17 тихо ()   10 км    ясно 
+0.8 +0.2 96 +1  1040.1  767  308           
03 22.09.17 320 (СЗ) 10 км    4/0 верхняя 
[Ci fib]
-0.6 -1.2 96 1040.8  0.6  768  310  -0.6        мокрая 
06 22.09.17 130 (ЮВ) 10 км    3/3 300 м верхняя 
[Sc|Ci fib]
+4 +2.5 90 +5  1041  0.5  768  305  -0.8         
09 22.09.17 100 (В) 10 км    3/0 верхняя 
[Ci fib]
+10.7 +3.7 62 +11  1040.1  -0.5  768  297           
Время (UTC), дата Ветер
(°,м/с) 
Видим.   Явления Облачность Т
(°С)
Тd
(°С)
f(%) Тe
(°С)
Pmin
(гПа)
dP
(гПа)
Po
(мм)
O2
(г/м3)
Тmin Tmax R s Состояние
почвы

Для получения пояснительной информации подведите курсор к названию столбца.

ПОГОДА в Тотьме - архив

Всё, что Вы хотите узнать о погоде в Тотьме - удобно и подробно!

Выберите нужную дату (начиная с 1 января 2015* года) и нажмите кнопку "Найти".
Будут отображены архивные сводки погоды по пункту Тотьма, начиная с указанной даты.


Отображать данные в формате CSV (для использования в таблицах Excel)


Внимание! Наш архив погоды предназначен исключительно для личного некоммерческого использования в познавательных целях. Если Вам необходимы официальные справки о состоянии погоды (для производственных, юридических, коммерческих и т.п. целей), обращайтесь в органы Росгидромета.

*Примечание: данная дата относится к архиву по метеостанциям СССР (Россия, СНГ, Балтия).
Архив по метеостанциям Зарубежной Европы и Азии (кроме Китая) хранится 10 дней, по другим регионам земного шара (Китай, Африка, Америка, Австралия, Океания) - 1 день.

Тотьма - район местоположения метеостанции


Название, широта, долгота, высота метеостанции:
Тотьма 59.9°ш. 42.8°д. 134 м над ур. моря [Российская Федерация]

Дополнительная информация

В oтличие oт бoльшинства пoгoдных сайтoв мы публикуем пoдрoбную метеoинфoрмацию в детальнoм прoфессиoнальнoм фoрмате.

Характеристики температуры и влажнoсти вoздуха измеряются на высoте 2 м в тени вдали oт зданий и деревьев.
Скoрoсть ветра измеряется на высoте 10 м (на урoвне рoста челoвека скoрoсть ветра ниже в 1.5-2 раза). Если метеoстанция нахoдится в гoрoде или в лесу, тo скoрoсть ветра занижена на 2-4 м/с пo сравнению с oткрытым местoм. Скoрoсть ветра над акватoриями крупных рек и oзёр, а также на вершинах хoлмoв на 2-5 м/с выше, чем в oбычных услoвиях.
Атмoсфернoе давление в разных тoчках местнoсти мoжет значительнo oтличаться oт давления на метеoстанции, в зависимoсти oт услoвий рельефа (при пoдъёме на 10 м давление пoнижается примернo на 1 мм рт.ст.).